Weather observations for the past three days for
Tekamah, Tekamah Municipal Airport
Imperial (Metric)
Date Time (cdt) Wind (mph) Vis. (mi.) Weather Sky Cond. Temperature (ºF) Relative Humidity Wind Chill (°F) Heat Index (°F) Pressure Precipitation (in)
Air Dwpt 6 hour altimeter (in) sea level (mb) 1 hr 3 hr 6 hr
Max. Min.
05 13:54 NW 20 G 29 10.00 Fair CLR 57.9 24.1 27% 29.93 1013.2
05 12:54 NW 15 10.00 Fair CLR 57 23 57.9 43 27% 29.93 1013.2
05 11:54 NW 12 G 21 10.00 Fair CLR 55.9 25 30% 29.94 1013.7
05 10:54 N 12 G 18 10.00 Fair CLR 55 25 31% 29.93 1013.1
05 09:54 N 13 G 22 10.00 Fair CLR 53.1 27 37% 29.93 1013.1
05 08:54 N 9 10.00 Fair CLR 48.9 30.9 50% 45 29.92 1013.0
05 07:54 NW 12 10.00 Fair CLR 46 32 58% 41 29.89 1011.7
05 06:54 NW 6 10.00 Fair CLR 43 32 50 42.1 65% 40 29.85 1010.6
05 05:54 NW 8 10.00 Fair CLR 43 32 65% 39 29.85 1010.4
05 04:54 NW 7 10.00 Fair CLR 45 32 61% 42 29.84 1010.0
05 03:54 NW 9 10.00 Fair CLR 44.1 33.1 65% 40 29.82 1009.2
05 02:54 NW 9 10.00 Fair CLR 46.9 36 66% 43 29.81 1008.7
05 01:54 NW 6 10.00 Partly Cloudy SCT110 46 37.9 73% 44 29.8 1008.4
05 00:54 NW 6 10.00 Overcast FEW070 OVC100 50 41 63 48.9 71% 48 29.81 1008.6
04 23:54 NW 3 10.00 Mostly Cloudy BKN110 48.9 39.9 71% 29.8 1008.3
04 22:54 W 8 10.00 Overcast FEW080 OVC100 50 41 71% 47 29.82 1008.8
04 21:54 N 10 10.00 Light Rain SCT055 BKN085 BKN110 53.1 35.1 51% 29.79 1008.1
04 20:54 N 17 10.00 Mostly Cloudy BKN110 55.9 30.9 39% 29.78 1007.6
04 19:54 N 22 10.00 Partly Cloudy and Breezy SCT110 57.9 32 38% 29.75 1006.9
04 18:54 N 24 G 37 10.00 Fair and Breezy CLR 63 30 79 63 29% 29.73 1006.3
04 17:54 N 25 G 36 10.00 Fair and Breezy CLR 70 30.9 23% 29.68 1004.4
04 16:54 N 28 G 36 10.00 Fair and Windy CLR 73.9 32 21% 29.66 1003.6
04 15:54 NW 18 G 29 10.00 Fair CLR 77 33.1 20% 77 29.64 1002.8
04 14:54 N 20 G 26 10.00 Fair CLR 78.1 35.1 21% 78 29.62 1002.1
04 13:54 N 18 G 32 10.00 Fair CLR 78.1 39 25% 78 29.61 1001.7
04 12:54 N 18 G 30 10.00 Fair CLR 78.1 43 80.1 45 29% 78 29.6 1001.3
04 11:54 NW 20 G 29 10.00 Fair CLR 79 39.9 25% 78 29.59 1001.2
04 10:54 W 21 10.00 Fair and Breezy CLR 78.1 39 25% 78 29.58 1000.6
04 09:54 W 16 10.00 Fair CLR 73.9 37.9 27% 29.58 1000.6
04 08:54 W 12 10.00 Fair CLR 69.1 37.9 32% 29.59 1000.9
04 07:54 Calm 10.00 Fair CLR 55.9 39 53% 29.61 1001.7
04 06:54 Calm 10.00 Fair CLR 46.9 37.9 50 44.1 71% 29.6 1001.7
04 05:54 SE 3 10.00 Mostly Cloudy BKN110 45 37 74% 29.6 1001.5
04 04:54 Calm 10.00 Fair CLR 46 36 68% 29.61 1001.9
04 03:54 SE 7 10.00 Fair CLR 45 35.1 68% 42 29.62 1002.3
04 02:54 SE 6 10.00 Fair CLR 46 35.1 66% 44 29.64 1003.0
04 01:54 S 7 10.00 Fair CLR 46.9 34 61% 44 29.67 1004.0
04 00:54 S 3 10.00 Fair CLR 50 34 75 50 54% 29.7 1004.9
03 23:54 S 7 10.00 Fair CLR 51.1 34 52% 29.72 1005.6
03 22:54 Calm 10.00 Fair CLR 55 34 45% 29.73 1006.0
03 21:54 SW 3 10.00 Fair CLR 59 35.1 41% 29.75 1006.5
03 20:54 W 6 10.00 Fair CLR 64 34 33% 29.75 1006.7
03 19:54 W 7 10.00 Fair CLR 71.1 34 26% 29.76 1007.0
03 18:54 W 7 10.00 Fair CLR 75 32 77 73 21% 76 29.77 1007.0
03 17:54 W 9 10.00 Fair CLR 75.9 32 20% 76 29.78 1007.4
03 16:54 N 9 10.00 Fair CLR 75 32 21% 76 29.79 1007.9
03 15:54 NW 12 G 23 10.00 Fair CLR 75 33.1 22% 76 29.81 1008.5
03 14:54 N 15 G 21 10.00 Fair CLR 73.9 34 23% 29.83 1009.3
03 13:54 N 14 G 23 10.00 Fair CLR 75 34 22% 76 29.84 1009.7
03 12:54 NW 14 G 22 10.00 Fair CLR 73 35.1 73.9 55.9 25% 29.86 1010.4
03 11:54 N 15 G 24 10.00 Fair CLR 71.1 34 26% 29.88 1011.0
03 10:54 NW 10 10.00 Fair CLR 66 36 33% 29.88 1011.1
03 09:54 N 13 10.00 Fair CLR 64 36 35% 29.86 1010.7
03 08:54 N 7 10.00 Fair CLR 59 37.9 46% 29.86 1010.5
03 07:54 NW 12 10.00 Fair CLR 57 36 45% 29.84 1009.7
03 06:54 W 12 10.00 Fair CLR 55.9 36 57 53.1 47% 29.82 1008.9
03 05:54 W 16 10.00 Fair CLR 55.9 34 44% 29.8 1008.2
03 04:54 SW 22 G 30 10.00 Fair and Breezy CLR 55 30.9 40% 29.8 1008.4
03 03:54 SW 16 G 26 10.00 Fair CLR 55.9 30 37% 29.8 1008.4
03 02:54 SW 17 G 24 10.00 Fair CLR 55 30.9 40% 29.81 1008.7
03 01:54 S 13 10.00 Fair CLR 55 30.9 40% 29.84 1009.7
03 00:54 S 12 10.00 Fair CLR 53.1 30 69.1 50 41% 29.85 1010.3
02 23:54 S 13 10.00 Fair CLR 53.1 28.9 40% 29.86 1010.8
02 22:54 S 13 10.00 Fair CLR 52 28.9 41% 29.88 1011.4
02 21:54 S 12 10.00 Fair CLR 53.1 28 38% 29.9 1012.0
02 20:54 S 12 8.00 Fair CLR 57.9 26.1 29% 29.91 1012.6
02 19:54 S 10 9.00 Fair CLR 66 25 21% 29.94 1013.5
02 18:54 SW 16 10.00 Fair CLR 69.1 25 71.1 63 19% 29.95 1014.0
02 17:54 SW 12 G 21 10.00 Fair CLR 70 24.1 18% 29.97 1014.7
02 16:54 SW 12 G 17 10.00 Fair CLR 69.1 24.1 18% 29.99 1015.4
02 15:54 SW 10 G 16 10.00 Fair CLR 69.1 25 19% 30.02 1016.5
02 14:54 W 8 10.00 Fair CLR 66.9 25 20% 30.05 1017.6
Date Time (cdt) Wind (mph) Vis. (mi.) Weather Sky Cond. Air Dwpt Max. Min. Relative Humidity Wind Chill (°F) Heat Index (°F) altimeter (in) sea level (mb) 1 hr 3 hr 6 hr
6 hour
Temperature (ºF) Pressure Precipitation (in)